Showing default

ASNARO-2, 43152

Orbit data source: Space-Track

ASNARO-2, 43152 is a payload satellite owned by J-spacesystems (JP) in SSO that was launched on Wed, 17 Jan 2018 UTC via an EPSILON launch vehicle from the Kagoshima Space Center University Of Tokyo (KSCUT). Payload-class satellites include a variety of spacecraft equipped with specific instruments for various scientific and technological missions. These include communications satellites like Starlink; space stations such as the ISS; scientific satellites like the Hubble; Earth observation satellites from companies like Planet Labs, Umbra, and HawkEye 360; GPS; miniature CubeSats for education and research; and military/defense satellites.

Loading next visibility...
Identifier
43152, 2018-007A
Orbit
SSO
Country
Flag of JPJP / JPN
Related business
Manufacturer
NEC Toshiba/Fuchu
Mission
Operational Commercial Radar Imaging
Bus & Motor
NEXTAR-300L, AOCS?
Mass
570 kg wet, ~500 kg dry
Launch date (UTC)
2018-01-17 (8 years ago)
Launch vehicle
EPSILON
Launch site
Kagoshima Space Center University Of Tokyo (KSCUT)
Object type
Payload
Rocket body
Debris
Shape & HBR
Cyl + 2 Pan + 1 Dish, 1.8 m
Radar Cross Section
9.327 m², Large (>1 m²)

Expand to show TLE details & history
Last TLE update: 22 hours ago

TLE from 22 hours ago
0 ASNARO-2
1 43152U 18007A   26172.52407740  .00007080  00000-0  30913-3 0  9992
2 43152  97.3976 179.3837 0001811  92.9574 267.1869 15.22428788468074
Epoch: 2026-06-21T12:34Z
TLE epoch observation values (Epoch: 2026-06-21T12:34:40.287Z)
Latitude
-0.00009°
Longitude
80.99273°
Altitude
501.672 km
Speed
7.613 km/s
True Right ascension
11h 57m 32s
True Declination
0° 00' 00"
Sunlit
Object was in daylight at epoch
Visualization orbit readout
Latitude
Unknown
Longitude
Unknown
Altitude
Unknown
Speed
Unknown
Apparent Right ascension
Unknown
Apparent Declination
Unknown
Sunlit
N/A
Visualization observer readout
Local Sidereal Time
21:37:13
Azimuth
Unknown
Elevation
Unknown
Doppler factor
Unknown
Orbital elements
Apogee altitude
496.724 km
Perigee altitude
494.235 km
Semi-major axis
6,873.616 km
Eccentricity
0.00018
Inclination
97.3976°
RAAN
179.3837°
Arg. of periapsis
92.9574°
True anomaly
267.16617°
Mean anomaly
267.1869°
Eccentric anomaly
267.17654°
Mean motion
3.8086 °/min
Orbital period
94.52 mins
BSTAR
0.00030913
Loading maneuver chart data...
Computing Atmospheric mass density...
Loading historical data...
Loading historical data...
Loading historical data...
Loading historical data...
Loading historical data...
Loading historical data...
Loading historical data...
Other satellites on launch #7 in the year 2018 (2018-01-17 UTC)

Documentation

Showing up to 5 results
|